Theta_e
338 339 341 341 340 340 340 339 340 340 339 338 337 335 334 333 333 332 331 331 331 329 329 327 325 324 327
340 331 333 337 337 337 336 333 332 334 334 334 333 335 334 332 332 332 330 330 329 328 326 324 323 324 327
338 333 330 330 330 330 330 327 330 336 336 334 329 333 333 332 331 330 328 326 325 324 323 322 323 327 326
335 337 335 333 333 335 336 335 334 334 334 331 324 324 325 327 328 327 325 324 325 326 326 325 327 327 327
333 334 334 331 331 332 334 334 334 332 331 332 329 328 328 322 327 327 328 327 326 326 327 327 326 327 327
332 331 332 330 329 329 331 331 330 328 327 327 327 329 331 331 330 330 329 327 327 326 326 326 326 326 327
331 330 329 329 328 328 330 331 331 329 327 328 329 330 331 331 330 330 329 328 327 326 326 326 326 327 328
332 330 328 328 328 329 330 331 330 330 330 330 330 331 331 331 331 330 328 327 327 327 326 326 327 329 328
332 331 330 328 328 329 330 331 330 330 328 330 331 331 331 331 330 330 329 328 327 327 326 327 328 328 326
333 332 331 330 328 329 330 331 330 329 328 329 330 330 331 330 330 329 327 326 327 327 327 327 326 326 325
333 333 333 332 331 332 333 333 332 330 327 327 327 329 329 328 328 326 326 324 325 325 325 324 325 325 323
331 332 332 331 331 332 334 332 330 327 326 326 326 326 326 323 323 323 323 326 324 325 322 321 323 323 322
327 327 328 328 330 331 334 334 332 330 327 326 326 326 324 323 324 323 323 323 324 325 321 320 321 320 320
328 330 331 331 332 333 334 333 331 330 328 326 326 326 326 326 324 323 322 322 321 322 318 318 312 314 317
329 331 332 333 333 331 332 330 331 329 329 328 327 328 328 328 328 327 324 321 319 321 319 316 308 306 306
331 330 330 329 327 329 331 331 331 331 330 329 329 329 330 329 327 325 324 323 321 318 317 314 315 312 301
Wind_Speed
7 9 10 12 12 11 11 12 14 15 15 14 12 12 12 12 12 11 11 11 12 11 10 9 9 8 8
9 6 8 10 11 10 11 11 12 13 12 11 11 11 12 10 10 11 10 9 10 10 9 8 4 3 7
8 7 8 8 10 10 10 8 6 7 8 9 10 10 10 9 9 9 9 8 4 7 7 6 6 4 5
6 8 7 7 6 6 6 6 5 6 6 7 7 8 8 7 7 7 6 2 1 4 3 2 4 5 4
7 6 4 4 4 4 6 5 5 4 4 3 3 3 4 1 3 2 2 4 5 4 4 4 4 4 4
7 6 6 5 4 4 4 6 4 3 3 3 3 4 3 2 3 2 2 3 3 3 4 4 5 5 4
10 7 7 6 5 5 5 5 4 4 4 3 3 3 2 2 2 2 2 2 3 4 4 5 5 6 6
10 10 7 6 6 6 5 5 5 4 3 3 3 2 2 1 1 2 3 3 3 3 4 5 5 5 6
11 10 8 7 7 5 5 6 6 5 4 3 2 2 1 1 1 1 2 3 3 3 4 5 5 5 5
9 8 6 7 6 6 5 5 7 6 5 4 2 2 1 2 2 2 3 4 3 4 5 5 5 4 5
12 9 8 8 7 6 6 6 8 7 5 3 2 2 3 3 2 2 2 2 4 4 5 6 5 3 4
9 8 6 6 7 7 7 7 9 7 8 6 5 5 4 2 3 2 2 2 3 4 5 5 3 3 4
10 9 8 9 8 8 8 10 10 9 9 8 5 6 5 5 4 3 1 3 0 4 5 5 2 2 4
11 10 8 9 9 9 9 9 9 10 10 7 8 6 7 5 6 6 4 1 0 3 4 3 1 3 2
16 10 9 7 5 7 7 6 9 10 10 9 9 7 6 6 4 5 5 4 2 1 3 2 2 0 3
18 14 16 12 11 8 9 8 8 11 11 10 9 8 7 3 4 4 3 3 3 3 1 1 2 3 3
Wind_Direction
108 116 115 118 116 119 111 87 81 100 98 93 91 96 93 88 84 77 72 70 65 64 61 54 46 10 48
142 94 92 92 94 86 82 84 83 82 87 89 106 85 91 91 88 80 68 63 61 59 55 44 28 249 45
144 113 97 80 82 96 101 90 122 108 106 93 61 69 78 82 81 70 65 64 78 81 54 27 299 33 21
140 151 133 137 139 127 134 132 117 113 89 92 84 79 76 75 79 75 60 71 327 42 61 202 30 8 11
157 154 154 148 144 144 141 137 123 122 134 122 121 121 103 88 91 97 73 48 40 19 23 16 5 352 356
160 172 160 163 166 162 150 147 147 137 134 134 120 113 113 79 88 58 52 29 23 19 9 357 356 349 349
172 170 171 173 182 164 165 161 154 146 150 146 127 127 113 118 89 63 30 7 1 357 350 343 341 341 339
183 178 176 175 171 175 173 168 170 163 158 152 149 150 149 63 45 16 1 339 337 336 329 337 333 337 347
191 182 178 179 180 182 182 175 175 178 172 179 173 177 125 130 243 246 274 292 300 322 320 323 332 350 355
207 193 191 182 184 184 186 184 186 187 184 180 186 201 173 220 255 282 297 304 316 331 332 332 332 350 22
201 196 201 198 198 191 190 193 188 186 181 181 200 221 207 228 255 273 294 314 305 331 336 324 338 25 90
202 203 200 207 212 205 203 197 188 188 186 186 188 197 212 207 229 238 285 294 323 326 321 313 17 91 111
193 198 200 205 210 211 209 209 195 191 190 195 203 195 187 207 218 214 254 284 13 332 305 336 101 89 113
195 200 206 208 215 211 209 208 200 194 194 198 206 202 203 203 202 195 189 179 238 1 336 296 335 149 131
204 198 204 209 212 210 210 199 207 193 194 202 207 208 210 220 205 184 179 185 193 65 33 312 254 309 321
202 201 202 203 206 204 205 197 193 202 200 199 203 209 210 197 187 145 161 170 187 193 151 343 12 352 342